N6GIW Weather Reports


time (UTC)temp
C
wind
direction
speed
KPH
gust
KPH
rain 1hr
cm
rain 24hr
cm
rain mn
cm
humidity
%
barometer
mb
20260510171003 30 50 1.6 16.1 0.00 0.00 0.00 15 1023.2
20260510170003 30 57 3.2 16.1 0.00 0.00 0.00 15 1023.0
20260510165504 30 31 8.0 16.1 0.00 0.00 0.00 14 1023.0
20260510165003 30 12 8.0 16.1 0.00 0.00 0.00 14 1023.1
20260510164504 30 14 11.3 19.3 0.00 0.00 0.00 14 1023.1
20260510164003 30 14 8.0 16.1 0.00 0.00 0.00 14 1023.0
20260510163503 30 34 6.4 19.3 0.00 0.00 0.00 15 1022.9
20260510163004 30 82 3.2 11.3 0.00 0.00 0.00 16 1023.0
20260510162503 30 87 3.2 11.3 0.00 0.00 0.00 16 1022.7
20260510162003 30 83 3.2 4.8 0.00 0.00 0.00 16 1022.6
20260510161503 30 79 4.8 8.0 0.00 0.00 0.00 16 1022.5
20260510161003 30 44 4.8 11.3 0.00 0.00 0.00 15 1022.5
20260510160004 30 74 1.6 4.8 0.00 0.00 0.00 14 1022.4
20260510155003 30 45 3.2 4.8 0.00 0.00 0.00 14 1022.2
20260510154503 30 81 1.6 4.8 0.00 0.00 0.00 13 1022.2
20260510154003 30 76 1.6 3.2 0.00 0.00 0.00 14 1022.1
20260510153503 30 75 0.0 3.2 0.00 0.00 0.00 13 1022.1
20260510152504 30 95 1.6 4.8 0.00 0.00 0.00 13 1022.1
20260510152003 30 96 3.2 4.8 0.00 0.00 0.00 14 1022.1
20260510151503 30 116 3.2 4.8 0.00 0.00 0.00 14 1022.0
20260510151003 30 155 0.0 3.2 0.00 0.00 0.00 14 1022.0
20260510150503 30 189 0.0 3.2 0.00 0.00 0.00 14 1021.9
20260510150003 30 231 0.0 0.0 0.00 0.00 0.00 14 1022.0
20260510145503 29 232 0.0 0.0 0.00 0.00 0.00 15 1022.0
20260510145005 28 232 0.0 0.0 0.00 0.00 0.00 15 1022.0
20260510144003 27 232 0.0 0.0 0.00 0.00 0.00 16 1021.9
20260510143503 26 232 0.0 0.0 0.00 0.00 0.00 16 1021.8
20260510143005 26 232 0.0 0.0 0.00 0.00 0.00 17 1021.8
20260510142503 26 232 0.0 1.6 0.00 0.00 0.00 17 1021.7
20260510142004 25 232 0.0 1.6 0.00 0.00 0.00 17 1021.8
20260510141505 25 232 0.0 1.6 0.00 0.00 0.00 18 1021.7
20260510141003 24 232 0.0 3.2 0.00 0.00 0.00 18 1021.7
20260510140003 23 230 1.6 3.2 0.00 0.00 0.00 19 1021.4
20260510135505 22 229 0.0 4.8 0.00 0.00 0.00 19 1021.3
20260510135004 22 229 1.6 4.8 0.00 0.00 0.00 20 1021.2
20260510134503 21 240 1.6 3.2 0.00 0.00 0.00 20 1021.2
20260510132504 20 241 1.6 4.8 0.00 0.00 0.00 21 1021.0
20260510132004 19 239 1.6 3.2 0.00 0.00 0.00 22 1021.0
20260510131503 19 238 0.0 0.0 0.00 0.00 0.00 23 1021.0
20260510131004 18 238 0.0 1.6 0.00 0.00 0.00 23 1021.0
20260510130505 18 238 0.0 3.2 0.00 0.00 0.00 23 1020.9
20260510130005 18 238 0.0 3.2 0.00 0.00 0.00 22 1020.8
20260510125504 18 241 1.6 3.2 0.00 0.00 0.00 22 1020.7
20260510124503 18 240 0.0 1.6 0.00 0.00 0.00 23 1020.7
20260510124004 18 240 1.6 3.2 0.00 0.00 0.00 22 1020.7
20260510123504 18 240 0.0 3.2 0.00 0.00 0.00 22 1020.6
20260510123003 18 240 1.6 3.2 0.00 0.00 0.00 22 1020.6
20260510122503 19 238 0.0 3.2 0.00 0.00 0.00 22 1020.6
20260510122005 19 238 3.2 4.8 0.00 0.00 0.00 22 1020.6
20260510121503 19 237 0.0 3.2 0.00 0.00 0.00 22 1020.6
20260510121003 18 239 1.6 4.8 0.00 0.00 0.00 23 1020.4
20260510120504 18 241 1.6 3.2 0.00 0.00 0.00 23 1020.5
20260510120003 18 242 0.0 1.6 0.00 0.00 0.00 22 1020.5
20260510115504 18 242 1.6 3.2 0.00 0.00 0.00 22 1020.4
20260510115004 18 242 0.0 0.0 0.00 0.00 0.00 23 1020.4
20260510114503 18 242 0.0 0.0 0.00 0.00 0.00 23 1020.4
20260510114004 18 242 0.0 0.0 0.00 0.00 0.00 22 1020.4
20260510113004 18 243 0.0 3.2 0.00 0.00 0.00 22 1020.4
20260510112003 18 248 1.6 3.2 0.00 0.00 0.00 21 1020.3
20260510111504 18 248 0.0 1.6 0.00 0.00 0.00 20 1020.3
20260510111003 18 248 0.0 1.6 0.00 0.00 0.00 20 1020.4
20260510110504 18 249 1.6 4.8 0.00 0.00 0.00 19 1020.4
20260510105503 18 250 3.2 4.8 0.00 0.00 0.00 18 1020.4
20260510105003 18 244 3.2 4.8 0.00 0.00 0.00 18 1020.4
20260510104503 18 244 1.6 3.2 0.00 0.00 0.00 17 1020.5
20260510104004 19 244 0.0 3.2 0.00 0.00 0.00 17 1020.4
20260510103503 19 244 3.2 4.8 0.00 0.00 0.00 17 1020.4
20260510103003 20 236 3.2 4.8 0.00 0.00 0.00 17 1020.5
20260510102503 20 236 0.0 4.8 0.00 0.00 0.00 17 1020.5
20260510102003 19 236 3.2 4.8 0.00 0.00 0.00 17 1020.5
20260510101504 19 242 3.2 4.8 0.00 0.00 0.00 17 1020.6
20260510101003 20 241 4.8 8.0 0.00 0.00 0.00 17 1020.6
20260510100503 20 248 3.2 4.8 0.00 0.00 0.00 16 1020.6
20260510100004 20 249 3.2 4.8 0.00 0.00 0.00 16 1020.6
20260510095503 20 241 3.2 4.8 0.00 0.00 0.00 16 1020.7
20260510095004 20 247 3.2 4.8 0.00 0.00 0.00 16 1020.7
20260510094503 20 244 3.2 4.8 0.00 0.00 0.00 16 1020.7
20260510094003 20 248 4.8 4.8 0.00 0.00 0.00 16 1020.7
20260510093503 20 242 3.2 4.8 0.00 0.00 0.00 16 1020.8
20260510093004 20 238 3.2 4.8 0.00 0.00 0.00 16 1020.8
20260510092504 20 238 1.6 3.2 0.00 0.00 0.00 16 1020.6
20260510092004 20 238 1.6 4.8 0.00 0.00 0.00 15 1020.6
20260510091504 20 248 4.8 4.8 0.00 0.00 0.00 15 1020.6
20260510090504 20 230 0.0 3.2 0.00 0.00 0.00 16 1020.6
20260510090004 20 230 1.6 4.8 0.00 0.00 0.00 16 1020.5
20260510085503 20 234 0.0 3.2 0.00 0.00 0.00 16 1020.5
20260510085003 20 238 1.6 4.8 0.00 0.00 0.00 16 1020.4
20260510084503 20 240 3.2 4.8 0.00 0.00 0.00 16 1020.4
20260510084004 20 207 0.0 1.6 0.00 0.00 0.00 16 1020.6
20260510083504 20 207 0.0 1.6 0.00 0.00 0.00 15 1020.6
20260510083004 21 207 0.0 1.6 0.00 0.00 0.00 15 1020.6
20260510082504 21 207 0.0 3.2 0.00 0.00 0.00 14 1020.6
20260510082004 22 207 3.2 4.8 0.00 0.00 0.00 14 1020.5
20260510081503 22 209 1.6 4.8 0.00 0.00 0.00 14 1020.6
20260510081003 22 235 0.0 4.8 0.00 0.00 0.00 14 1020.5
20260510080504 21 226 1.6 4.8 0.00 0.00 0.00 15 1020.5
20260510075508 21 209 0.0 0.0 0.00 0.00 0.00 15 1020.5
20260510075020 21 206 0.0 0.0 0.00 0.00 0.00 15 1020.6
20260510074003 21 221 0.0 0.0 0.00 0.00 0.00 14 1020.5
20260510073004 22 252 0.0 0.0 0.00 0.00 0.00 14 1020.6
20260510072504 21 251 0.0 0.0 0.00 0.00 0.00 15 1020.5
20260510072004 21 251 0.0 0.0 0.00 0.00 0.00 15 1020.4
20260510071505 21 252 0.0 0.0 0.00 0.00 0.00 15 1020.4
20260510071004 21 239 0.0 0.0 0.00 0.00 0.00 15 1020.4
20260510070503 21 192 0.0 0.0 0.00 0.00 0.00 14 1020.4
20260510070004 22 192 0.0 0.0 0.00 0.00 0.00 14 1020.3
20260510065504 22 192 0.0 0.0 0.00 0.00 0.00 14 1020.3
20260510065004 22 199 0.0 0.0 0.00 0.00 0.00 14 1020.4
20260510064504 22 200 0.0 0.0 0.00 0.00 0.00 14 1020.3
20260510063504 22 215 0.0 0.0 0.00 0.00 0.00 13 1020.3
20260510062503 22 232 0.0 0.0 0.00 0.00 0.00 13 1020.3
20260510061004 22 235 0.0 0.0 0.00 0.00 0.00 13 1020.2
20260510060503 22 235 0.0 0.0 0.00 0.00 0.00 13 1020.2
20260510060004 22 232 0.0 0.0 0.00 0.00 0.00 13 1020.3
20260510055004 22 223 0.0 0.0 0.00 0.00 0.00 14 1020.3
20260510054503 22 223 0.0 0.0 0.00 0.00 0.00 14 1020.4
20260510054003 22 224 0.0 0.0 0.00 0.00 0.00 14 1020.4
20260510053503 22 231 0.0 0.0 0.00 0.00 0.00 14 1020.4
20260510053004 22 232 0.0 0.0 0.00 0.00 0.00 14 1020.4
20260510052503 22 232 0.0 0.0 0.00 0.00 0.00 14 1020.3
20260510052004 22 232 0.0 0.0 0.00 0.00 0.00 14 1020.3
20260510051503 23 232 0.0 0.0 0.00 0.00 0.00 14 1020.3
20260510051003 23 232 0.0 0.0 0.00 0.00 0.00 13 1020.3
20260510050504 23 232 0.0 0.0 0.00 0.00 0.00 13 1020.2
20260510050005 23 217 0.0 0.0 0.00 0.00 0.00 13 1020.1
20260510045503 23 226 0.0 0.0 0.00 0.00 0.00 14 1020.2
20260510045003 23 229 0.0 0.0 0.00 0.00 0.00 15 1020.2
20260510044504 23 227 0.0 0.0 0.00 0.00 0.00 17 1020.1
20260510044003 23 226 0.0 0.0 0.00 0.00 0.00 18 1020.0
20260510043503 23 228 0.0 0.0 0.00 0.00 0.00 19 1020.1
20260510043004 23 224 0.0 0.0 0.00 0.00 0.00 19 1020.0
20260510042504 23 222 0.0 0.0 0.00 0.00 0.00 21 1020.0
20260510042004 24 223 0.0 0.0 0.00 0.00 0.00 21 1019.8
20260510041004 25 239 0.0 0.0 0.00 0.00 0.00 23 1019.8
20260510040503 25 234 0.0 0.0 0.00 0.00 0.00 23 1019.7
20260510035003 26 239 0.0 0.0 0.00 0.00 0.00 22 1019.7
20260510034505 26 247 0.0 0.0 0.00 0.00 0.00 22 1019.6
20260510034003 26 237 0.0 0.0 0.00 0.00 0.00 22 1019.6
20260510033503 26 248 0.0 0.0 0.00 0.00 0.00 22 1019.5
20260510033004 26 229 0.0 0.0 0.00 0.00 0.00 21 1019.4
20260510032504 26 250 0.0 0.0 0.00 0.00 0.00 21 1019.4
20260510032004 26 254 0.0 0.0 0.00 0.00 0.00 22 1019.4
20260510031504 26 293 0.0 0.0 0.00 0.00 0.00 22 1019.3
20260510031004 26 247 0.0 0.0 0.00 0.00 0.00 21 1019.3
20260510030504 27 233 0.0 0.0 0.00 0.00 0.00 21 1019.1
20260510030003 27 232 0.0 0.0 0.00 0.00 0.00 21 1019.2
20260510025504 27 243 0.0 0.0 0.00 0.00 0.00 21 1019.1
20260510025003 27 224 0.0 0.0 0.00 0.00 0.00 21 1019.0
20260510024505 27 232 0.0 0.0 0.00 0.00 0.00 21 1019.0
20260510023504 28 229 3.2 14.5 0.00 0.00 0.00 20 1019.0
20260510023004 28 230 8.0 14.5 0.00 0.00 0.00 20 1019.0
20260510022503 28 229 8.0 14.5 0.00 0.00 0.00 19 1018.9
20260510022004 29 221 8.0 14.5 0.00 0.00 0.00 18 1019.0
20260510021503 29 230 9.7 16.1 0.00 0.00 0.00 18 1018.9
20260510021003 30 224 9.7 16.1 0.00 0.00 0.00 17 1018.7
20260510020504 30 216 11.3 19.3 0.00 0.00 0.00 17 1018.7
20260510020005 30 214 11.3 19.3 0.00 0.00 0.00 16 1018.8
20260510015503 30 203 12.9 19.3 0.00 0.00 0.00 16 1018.7
20260510015004 30 208 11.3 19.3 0.00 0.00 0.00 16 1018.8
20260510014503 31 223 14.5 20.9 0.00 0.00 0.00 14 1018.7
20260510014004 31 226 12.9 22.5 0.00 0.00 0.00 13 1018.8
20260510013503 31 216 14.5 22.5 0.00 0.00 0.00 12 1018.7
20260510013004 31 217 11.3 20.9 0.00 0.00 0.00 12 1018.6
20260510012504 31 214 11.3 20.9 0.00 0.00 0.00 12 1018.6
20260510012004 31 209 12.9 22.5 0.00 0.00 0.00 13 1018.8
20260510011503 32 208 12.9 19.3 0.00 0.00 0.00 13 1018.8
20260510010504 32 221 14.5 22.5 0.00 0.00 0.00 13 1018.8
20260510010004 32 203 16.1 22.5 0.00 0.00 0.00 13 1018.7
20260510005503 32 202 12.9 22.5 0.00 0.00 0.00 12 1018.7
20260510005003 32 198 12.9 22.5 0.00 0.00 0.00 11 1018.8
20260510004503 32 209 12.9 22.5 0.00 0.00 0.00 11 1018.7
20260510004003 32 196 12.9 25.7 0.00 0.00 0.00 11 1018.8
20260510003504 33 190 11.3 20.9 0.00 0.00 0.00 11 1018.8
20260510003004 33 214 12.9 19.3 0.00 0.00 0.00 11 1018.8
20260510002003 33 189 14.5 29.0 0.00 0.00 0.00 11 1018.8
20260510001504 33 191 14.5 24.1 0.00 0.00 0.00 11 1018.8
20260510000503 33 199 16.1 25.7 0.00 0.00 0.00 11 1018.8
20260510000003 33 187 9.7 19.3 0.00 0.00 0.00 10 1018.8
20260509235504 33 170 11.3 19.3 0.00 0.00 0.00 10 1018.8
20260509235004 33 183 16.1 22.5 0.00 0.00 0.00 10 1018.8
20260509234503 33 170 14.5 20.9 0.00 0.00 0.00 10 1018.9
20260509234003 33 177 16.1 29.0 0.00 0.00 0.00 9 1018.9
20260509233504 33 203 17.7 25.7 0.00 0.00 0.00 10 1019.0
20260509233004 33 210 16.1 25.7 0.00 0.00 0.00 10 1018.9
20260509232503 33 199 14.5 32.2 0.00 0.00 0.00 9 1019.0
20260509232004 33 172 14.5 25.7 0.00 0.00 0.00 9 1019.1
20260509231503 33 234 12.9 27.4 0.00 0.00 0.00 9 1019.2
20260509231004 33 156 11.3 19.3 0.00 0.00 0.00 9 1019.2
20260509230503 33 187 12.9 32.2 0.00 0.00 0.00 9 1019.2
20260509230003 33 165 20.9 27.4 0.00 0.00 0.00 8 1019.3
20260509225004 33 185 14.5 22.5 0.00 0.00 0.00 9 1019.3
20260509224503 33 165 11.3 19.3 0.00 0.00 0.00 8 1019.5
20260509224004 33 190 11.3 19.3 0.00 0.00 0.00 8 1019.5
20260509223503 33 180 12.9 20.9 0.00 0.00 0.00 7 1019.6
20260509223004 33 180 14.5 27.4 0.00 0.00 0.00 7 1019.6
20260509222503 33 157 11.3 19.3 0.00 0.00 0.00 7 1019.8
20260509222003 33 175 14.5 19.3 0.00 0.00 0.00 8 1019.8
20260509221504 34 189 16.1 25.7 0.00 0.00 0.00 7 1019.8
20260509220504 34 188 11.3 32.2 0.00 0.00 0.00 7 1019.7
20260509220003 33 234 14.5 25.7 0.00 0.00 0.00 7 1019.9
20260509215504 34 210 11.3 19.3 0.00 0.00 0.00 7 1019.9
20260509215005 34 166 14.5 25.7 0.00 0.00 0.00 7 1019.9
20260509214503 33 239 17.7 24.1 0.00 0.00 0.00 7 1019.9
20260509214003 33 236 11.3 19.3 0.00 0.00 0.00 7 1020.0
20260509213003 33 202 6.4 14.5 0.00 0.00 0.00 8 1020.3
20260509212504 33 178 9.7 16.1 0.00 0.00 0.00 9 1020.4
20260509212003 33 213 16.1 32.2 0.00 0.00 0.00 9 1020.3
20260509211504 33 199 11.3 20.9 0.00 0.00 0.00 9 1020.3
20260509211004 33 176 8.0 22.5 0.00 0.00 0.00 9 1020.4
20260509210503 33 188 4.8 19.3 0.00 0.00 0.00 9 1020.5
20260509210003 33 150 9.7 19.3 0.00 0.00 0.00 9 1020.6
20260509205503 33 197 12.9 19.3 0.00 0.00 0.00 9 1020.6
20260509205003 33 127 3.2 11.3 0.00 0.00 0.00 10 1020.6
20260509204504 33 133 8.0 14.5 0.00 0.00 0.00 9 1020.6
20260509204004 33 67 4.8 11.3 0.00 0.00 0.00 10 1020.7
20260509203503 33 78 3.2 9.7 0.00 0.00 0.00 10 1020.8
20260509203003 33 112 6.4 12.9 0.00 0.00 0.00 10 1020.7
20260509202504 33 344 6.4 14.5 0.00 0.00 0.00 10 1020.7
20260509202004 33 320 8.0 12.9 0.00 0.00 0.00 10 1020.8
20260509201003 33 101 1.6 4.8 0.00 0.00 0.00 10 1020.9
20260509200003 32 14 1.6 4.8 0.00 0.00 0.00 11 1021.0
20260509195503 32 340 4.8 12.9 0.00 0.00 0.00 11 1021.0
20260509195004 32 71 6.4 11.3 0.00 0.00 0.00 11 1021.1
20260509194504 31 0 3.2 4.8 0.00 0.00 0.00 11 1021.2
20260509194003 31 13 4.8 12.9 0.00 0.00 0.00 11 1021.3
20260509193503 31 83 4.8 11.3 0.00 0.00 0.00 11 1021.4
20260509193003 31 335 6.4 14.5 0.00 0.00 0.00 11 1021.4
20260509191004 31 43 4.8 12.9 0.00 0.00 0.00 12 1021.7
20260509190003 31 77 3.2 12.9 0.00 0.00 0.00 12 1021.8
20260509185503 31 31 6.4 16.1 0.00 0.00 0.00 12 1021.8
20260509185004 31 9 9.7 19.3 0.00 0.00 0.00 12 1021.7
20260509184003 31 355 9.7 19.3 0.00 0.00 0.00 12 1021.8
20260509183503 31 44 3.2 12.9 0.00 0.00 0.00 13 1021.8
20260509183004 30 55 8.0 16.1 0.00 0.00 0.00 13 1021.8
20260509182504 30 25 8.0 19.3 0.00 0.00 0.00 12 1021.8
20260509182003 30 23 8.0 16.1 0.00 0.00 0.00 13 1021.8
20260509181503 30 28 4.8 11.3 0.00 0.00 0.00 12 1021.8
20260509181003 30 16 6.4 12.9 0.00 0.00 0.00 13 1021.8
20260509180504 30 21 6.4 16.1 0.00 0.00 0.00 13 1021.8
20260509180003 30 74 4.8 19.3 0.00 0.00 0.00 13 1021.8
20260509175004 30 343 8.0 12.9 0.00 0.00 0.00 13 1021.7
20260509174503 30 26 1.6 19.3 0.00 0.00 0.00 13 1021.7
20260509173503 30 46 4.8 14.5 0.00 0.00 0.00 13 1021.8
20260509173003 29 332 6.4 12.9 0.00 0.00 0.00 13 1021.8
20260509172003 30 36 9.7 16.1 0.00 0.00 0.00 13 1021.9
20260509171503 29 37 4.8 16.1 0.00 0.00 0.00 13 1021.9